Home > Weather > Gibraltar > Past weeks

Flag for Gibraltar Past Weather in Gibraltar, Gibraltar — Yesterday and Last 2 Weeks

Now
70 °F

Partly sunny.


Feels Like: 70 °F
Forecast: 69 / 76 °F
Wind: 10 mph from East

Location: Gibraltar Airport

Current Time: Jun 27, 2016 at 9:53:19 AM

Latest Report: Jun 27, 2016 at 8:50 AM


Visibility: 4 mi

Pressure: 30.07 "Hg

Humidity: 88%

Dew Point: 66 °F

Location of GibraltarLocation

Past Weather in Gibraltar — Graph

°F

Gibraltar Temperature Yesterday

Maximum temperature yesterday: 79 °F (at 2:50 PM)
Minimum temperature yesterday: 66 °F (at 5:50 AM)
Average temperature yesterday: 73 °F

High & Low Weather Summary for the Past Weeks

 TemperatureHumidityPressure
High90 °F (Jun 13, 3:50 PM)100% (Jun 12, 9:50 PM)30.30 "Hg (Jun 12, 9:50 PM)
Low63 °F (Jun 16, 5:50 AM)28% (Jun 18, 3:50 PM)29.80 "Hg (Jun 15, 5:50 AM)
Average72 °F68%30.03 "Hg
* Reported Jun 12 7:50 AM — Jun 27 7:50 AM, Gibraltar, Weather by CustomWeather, © 2016

Note: Actual official high and low records may vary slightly from our data, if they occured in-between our weather recording intervals... More about our weather records

Advertising

Gibraltar Weather History for the Previous 24 Hours

Scroll right to see more
 ConditionsComfort  
Time TempWeatherWind HumidityBarometerVisibility
7:50 AM
Mon, Jun 27
68 °FPartly cloudy.8 mph94%30.04 "Hg4 mi
6:50 AM70 °FLow clouds.7 mph88%30.04 "Hg4 mi
5:50 AM70 °FPassing clouds.7 mph94%30.04 "Hg4 mi
4:50 AM70 °FLow clouds.5 mph94%30.04 "Hg5 mi
3:50 AM70 °FPassing clouds.6 mph88%30.04 "HgN/A
2:50 AM72 °FPassing clouds.8 mph88%30.04 "HgN/A
1:50 AM70 °FPassing clouds.5 mph83%30.07 "Hg6 mi
12:50 AM72 °FPassing clouds.7 mph88%30.07 "HgN/A
11:50 PM
Sun, Jun 26
72 °FPassing clouds.6 mph83%30.07 "HgN/A
10:50 PM72 °FClear.8 mph78%30.04 "HgN/A
9:50 PM72 °FSunny.6 mph73%30.01 "Hg10 mi
8:50 PM73 °FSunny.6 mph65%30.01 "Hg10 mi
7:50 PM75 °FSunny.6 mph61%29.98 "Hg10 mi
6:50 PM77 °FSunny.13 mph54%29.98 "Hg10 mi
5:50 PM79 °FSunny.14 mph48%29.98 "Hg10 mi
4:50 PM77 °FPassing clouds.12 mph54%30.01 "HgN/A
3:50 PM79 °FPassing clouds.12 mph51%30.01 "HgN/A
2:50 PM79 °FPassing clouds.9 mph48%30.01 "HgN/A
1:50 PM77 °FPassing clouds.6 mph51%30.01 "HgN/A
12:50 PM77 °FPassing clouds.10 mph54%30.01 "HgN/A
11:50 AM75 °FPassing clouds.10 mph57%30.01 "HgN/A
10:50 AM73 °FPassing clouds.8 mph61%29.98 "HgN/A
9:50 AM70 °FPassing clouds.9 mph69%29.98 "HgN/A
Weather by CustomWeather, © 2016

See weather overviewHow to use our weather pages